Tracking 20241 objects as of 27-Jan-2020
HD Live streaming from Space Station
objects crossing your sky now

METEOR 2-12

Track METEOR 2-12 now!
10-day predictions
METEOR 2-12 is classified as:


NORAD ID: 15516
Int'l Code: 1985-013A
Perigee: 939.5 km
Apogee: 962.7 km
Inclination: 82.5 °
Period: 103.9 minutes
Semi major axis: 7322 km
RCS: 5.2452 m2 (large)
Launch date: February 6, 1985
Source: Commonwealth of Independent States (former USSR) (CIS)
Launch site: PLESETSK MISSILE AND SPACE COMPLEX (PKMTR)
aabbcc
Your satellite tracking list
Your tracking list is empty




NASA's NSSDC Master Catalog

Two Line Element Set (TLE):
1 15516U 85013A   20027.12300228  .00000018  00000-0  25477-5 0  9993
2 15516  82.5307  33.5374 0015796   7.4474 352.6919 13.85634245768944
Source of the keplerian elements: AFSPC